Location: Heraklion
(35.3387°N, 25.1442°E)
Time: 10:33:56
(UTC+02:00)

STARLINK-5117 - Pass Details

Date: 07 December 2022
Orbit: 539 x 540 km, 53.2° (Epoch: 06 February)

Event Time Altitude Azimuth Distance (km) Brightness Sun altitude
Rises 17:31:46 0° 237° (WSW) 2,682 ? -5.4°
Reaches altitude 10° 17:34:01 10° 242° (WSW) 1,794 ? -5.9°
Maximum altitude 17:37:59 50° 319° (NW) 688 ? -6.6°
Drops below altitude 10° 17:41:59 10° 36° (NE) 1,803 ? -7.3°
Enters shadow 17:42:46 - 38° (NE) 2,106 ? -7.5°
